[[{"header":{"parameterUnit":"m.s-1","parameterCategory":2,"la1":30.2992,"la2":30.254,"lo1":-89.0895,"lo2":-89.0443,"dy":0.0025,"dx":0.0025,"nx":19,"ny":19,"refTime":"2026-05-24T09:00:00:Z","depth":"0","parameterNumber":2,"parameterNumberName":"U-component_of_CURRENTS"},"data":[0,0,0,0.1353,0.1355,0.1421,0.1421,0.1487,0.1488,0,0,0,0,0,0,0,0,0,0,0,0.1308,0.1308,0.1353,0.1355,0.1421,0.1421,0.1487,0.1488,0,0,0,0,0,0,0,0,0,0,0,0.1308,0.1308,0.1308,0.1355,0.1421,0.1421,0.1487,0.1441,0,0,0,0,0,0,0,0,0,0,0.1379,0.1329,0.1308,0.1308,0.1356,0.1421,0.1421,0.1439,0.1444,0.1452,0,0.1448,0,0.148,0.1492,0.1492,0,0,0,0.1353,0.1325,0.1358,0.1308,0.1356,0.1421,0.1391,0.1442,0.1448,0.1459,0.1449,0.1452,0.1481,0.1492,0.1493,0.1541,0.1541,0,0,0.135,0.131,0.1354,0.1361,0.1354,0.1389,0.1393,0.1446,0.1433,0.1449,0.1454,0.1482,0.1493,0.1493,0.1541,0.1541,0,0,0,0.134,0.1307,0.1339,0.1358,0.1377,0.1391,0.1396,0.143,0.1445,0.1455,0.1482,0.1493,0.1494,0.154,0.1541,0.1515,0,0,0,0.1338,0.1303,0.1337,0.1313,0.1376,0.1406,0.1378,0.1441,0.1449,0.1482,0.1493,0.1494,0.154,0.1541,0.1515,0.1497,0,0,0,0.1309,0.13,0.1305,0.1311,0.1345,0.1406,0.1423,0.1443,0.1465,0.1492,0.1495,0.154,0.154,0.1516,0.1498,0.1517,0,0,0,0.1272,0.1253,0.1303,0.1296,0.1345,0.139,0.1423,0.1454,0.1473,0.1493,0.154,0.1541,0.1516,0.1499,0.1517,0.1555,0.1556,0,0,0.1231,0.1246,0.1248,0.1296,0.1321,0.1382,0.141,0.145,0.148,0.1521,0.1523,0.1515,0.1498,0.1517,0.1563,0.1565,0,0,0,0.1226,0.1221,0.1236,0.1266,0.132,0.1369,0.1423,0.1452,0.1494,0.1494,0.1526,0.1516,0.1529,0.1552,0.1553,0.1681,0.1541,0.1541,0.1541,0.1094,0.116,0.1167,0.1245,0.1279,0.1364,0.1401,0.1454,0.1481,0.1499,0.1503,0.1509,0.1533,0.1534,0.1666,0.1516,0.1516,0.1516,0.1516,0.1041,0.1052,0.1134,0.1169,0.1245,0.1284,0.1386,0.1422,0.1481,0.1494,0.1508,0.1533,0.1534,0.1674,0.1515,0.1515,0.1515,0.1515,0.1515,0.0956,0.0975,0.1016,0.1088,0.1146,0.1242,0.1311,0.1381,0.1449,0.1467,0.152,0.1521,0.1639,0.1483,0.1483,0.1483,0.1483,0.1483,0.1483,0.0853,0.0903,0.0927,0.1006,0.105,0.1131,0.1266,0.1334,0.1441,0.1495,0.1496,0.1663,0.1499,0.1494,0.1483,0.1483,0.1483,0.1483,0.1483,0.077,0.0789,0.0831,0.0871,0.099,0.1076,0.1195,0.1367,0.1441,0.1502,0.1703,0.1526,0.1543,0.1543,0.154,0.1541,0.1541,0.1541,0.1541,0.0694,0.0713,0.0769,0.0833,0.0922,0.1055,0.1205,0.1379,0.1631,0.1775,0.18,0.1831,0.1823,0.1858,0.1851,0.1856,0.1937,0.1938,0.1938,0.065,0.0681,0.0703,0.0789,0.0901,0.1048,0.1202,0.1398,0.1799,0.1967,0.1972,0.1956,0.2013,0.199,0.2052,0.2032,0.2041,0,0]},{"header":{"parameterUnit":"m.s-1","parameterCategory":2,"la1":30.2992,"la2":30.254,"lo1":-89.0895,"lo2":-89.0443,"dy":0.0025,"dx":0.0025,"nx":19,"ny":19,"refTime":"2026-05-24T09:00:00:Z","depth":"0","parameterNumber":3,"parameterNumberName":"V-component_of_CURRENTS"},"data":[0,0,0,-0.172,-0.1721,-0.1781,-0.1781,-0.1852,-0.1853,0,0,0,0,0,0,0,0,0,0,0,-0.169,-0.169,-0.1719,-0.1721,-0.1781,-0.1781,-0.1852,-0.1853,0,0,0,0,0,0,0,0,0,0,0,-0.169,-0.169,-0.169,-0.1721,-0.1781,-0.1781,-0.1852,-0.1809,0,0,0,0,0,0,0,0,0,0,-0.1752,-0.172,-0.169,-0.169,-0.1721,-0.1781,-0.1781,-0.1807,-0.1812,-0.1823,0,-0.1824,0,-0.1843,-0.1857,-0.1858,0,0,0,-0.1724,-0.1716,-0.1737,-0.169,-0.1722,-0.1781,-0.1755,-0.181,-0.1815,-0.1829,-0.1825,-0.1828,-0.1844,-0.1858,-0.1858,-0.1871,-0.1871,0,0,-0.1721,-0.1699,-0.1733,-0.174,-0.1727,-0.1753,-0.1756,-0.1813,-0.1811,-0.1825,-0.183,-0.1845,-0.1858,-0.1859,-0.1872,-0.1871,0,0,0,-0.1709,-0.1696,-0.1717,-0.1737,-0.175,-0.1754,-0.1759,-0.1808,-0.1816,-0.1831,-0.1846,-0.1859,-0.1859,-0.1872,-0.1871,-0.1805,0,0,0,-0.1707,-0.169,-0.1715,-0.1702,-0.1748,-0.178,-0.1752,-0.1812,-0.1819,-0.1846,-0.1859,-0.186,-0.1872,-0.1872,-0.1808,-0.1764,0,0,0,-0.1689,-0.1688,-0.1693,-0.1701,-0.1727,-0.1779,-0.1791,-0.1814,-0.1828,-0.1858,-0.186,-0.1873,-0.1872,-0.181,-0.1769,-0.1744,0,0,0,-0.1668,-0.165,-0.1692,-0.1679,-0.1727,-0.1741,-0.1791,-0.1805,-0.1823,-0.1859,-0.1872,-0.1871,-0.1811,-0.1771,-0.1746,-0.1713,-0.1697,0,0,-0.163,-0.1645,-0.1638,-0.1677,-0.1668,-0.1733,-0.1727,-0.1775,-0.1817,-0.1855,-0.1856,-0.1807,-0.1769,-0.1744,-0.1666,-0.1652,0,0,0,-0.1616,-0.1606,-0.161,-0.1621,-0.1653,-0.167,-0.1727,-0.1749,-0.1781,-0.1825,-0.1809,-0.1787,-0.1774,-0.1759,-0.1748,-0.178,-0.1868,-0.1868,-0.1868,-0.1511,-0.1547,-0.1527,-0.1564,-0.158,-0.163,-0.1644,-0.1688,-0.1738,-0.1737,-0.1735,-0.1671,-0.1655,-0.1646,-0.1679,-0.1746,-0.1746,-0.1746,-0.1745,-0.144,-0.142,-0.1471,-0.1466,-0.1502,-0.151,-0.1569,-0.1603,-0.1625,-0.1672,-0.1663,-0.1692,-0.163,-0.167,-0.1741,-0.1742,-0.1743,-0.1743,-0.1743,-0.1355,-0.1348,-0.1367,-0.1375,-0.1378,-0.1431,-0.1424,-0.1485,-0.1549,-0.1544,-0.1552,-0.1553,-0.1587,-0.1547,-0.1547,-0.1546,-0.1546,-0.1546,-0.1546,-0.1251,-0.127,-0.1248,-0.1275,-0.1272,-0.1284,-0.1335,-0.1357,-0.1413,-0.1464,-0.1465,-0.1561,-0.1611,-0.1618,-0.1541,-0.1541,-0.1542,-0.1543,-0.1543,-0.1127,-0.1148,-0.112,-0.1117,-0.1127,-0.1112,-0.1177,-0.1222,-0.127,-0.1292,-0.1423,-0.1435,-0.1454,-0.1464,-0.1467,-0.1356,-0.1356,-0.1356,-0.1356,-0.1031,-0.1046,-0.1002,-0.0985,-0.0981,-0.1024,-0.0975,-0.1037,-0.1216,-0.1319,-0.1365,-0.1408,-0.1414,-0.1434,-0.1445,-0.145,-0.1337,-0.1337,-0.1337,-0.0944,-0.0959,-0.0902,-0.0914,-0.0915,-0.0923,-0.0843,-0.0775,-0.1126,-0.1342,-0.1412,-0.1413,-0.1486,-0.1493,-0.1538,-0.155,-0.1564,0,0]}],[{"header":{"parameterUnit":"m.s-1","parameterCategory":2,"la1":30.2992,"la2":30.254,"lo1":-89.0895,"lo2":-89.0443,"dy":0.0025,"dx":0.0025,"nx":19,"ny":19,"refTime":"2026-05-24T09:00:00:Z","depth":"2","parameterNumber":2,"parameterNumberName":"U-component_of_CURRENTS"},"data":[0,0,0,0.0778,0.0778,0.0794,0.0794,0.0796,0.0796,0,0,0,0,0,0,0,0,0,0,0,0.0771,0.0771,0.0778,0.0779,0.0794,0.0794,0.0796,0.0796,0,0,0,0,0,0,0,0,0,0,0,0.0771,0.0771,0.0771,0.0779,0.0794,0.0794,0.0796,0.0787,0,0,0,0,0,0,0,0,0,0,0.0774,0.0772,0.0771,0.0771,0.0779,0.0794,0.0794,0.0787,0.0788,0.0786,0,0.0793,0,0.0798,0.0797,0.0797,0,0,0,0.0772,0.0771,0.0777,0.0771,0.0779,0.0794,0.0785,0.0788,0.0789,0.0787,0.0793,0.0793,0.0798,0.0797,0.0797,0.0865,0.0866,0,0,0.0771,0.077,0.0777,0.0778,0.0789,0.0785,0.0786,0.0788,0.079,0.0793,0.0794,0.0798,0.0797,0.0797,0.0865,0.0866,0,0,0,0.0773,0.077,0.0776,0.0778,0.0784,0.0785,0.0786,0.079,0.0793,0.0794,0.0798,0.0797,0.0797,0.0864,0.0865,0.097,0,0,0,0.0772,0.0771,0.0776,0.0775,0.0784,0.079,0.0788,0.0792,0.0793,0.0798,0.0797,0.0797,0.0863,0.0865,0.0966,0.1001,0,0,0,0.0769,0.0771,0.0775,0.0775,0.0785,0.079,0.0793,0.0793,0.0796,0.0797,0.0797,0.0863,0.0864,0.0962,0.0994,0.106,0,0,0,0.0764,0.0778,0.0775,0.0799,0.0785,0.0827,0.0793,0.0815,0.0821,0.0797,0.0863,0.0865,0.096,0.099,0.1056,0.1052,0.1072,0,0,0.0779,0.0779,0.0797,0.0795,0.0845,0.0824,0.0891,0.0878,0.0846,0.0858,0.0859,0.0967,0.0993,0.1059,0.115,0.1167,0,0,0,0.0801,0.0813,0.0828,0.0858,0.0882,0.093,0.0921,0.0934,0.0958,0.0859,0.0972,0.0985,0.1024,0.1012,0.1026,0.0873,0.0873,0.0873,0.0872,0.0807,0.0835,0.0874,0.0917,0.0953,0.1007,0.1051,0.1067,0.1024,0.106,0.1076,0.1201,0.1191,0.1201,0.1085,0.1086,0.1086,0.1086,0.1087,0.0834,0.0857,0.0912,0.0957,0.1024,0.1083,0.1171,0.1179,0.1253,0.1187,0.122,0.1128,0.1223,0.1095,0.1094,0.1092,0.1092,0.1091,0.109,0.0831,0.0847,0.0882,0.0955,0.1046,0.1124,0.1233,0.1294,0.133,0.1383,0.135,0.1347,0.126,0.1397,0.1398,0.1398,0.1399,0.1399,0.1399,0.0803,0.0843,0.0871,0.0952,0.1002,0.1107,0.1265,0.1347,0.1446,0.1459,0.1459,0.1306,0.1295,0.1277,0.1407,0.1405,0.1404,0.1404,0.1403,0.0788,0.0798,0.0835,0.0875,0.0993,0.1072,0.1233,0.1418,0.152,0.1576,0.1506,0.1501,0.1464,0.145,0.1435,0.1598,0.1598,0.1598,0.1598,0.076,0.0774,0.0805,0.0855,0.0946,0.1058,0.1163,0.1223,0.136,0.1317,0.1328,0.1232,0.1233,0.1174,0.1167,0.1142,0.1228,0.1227,0.1226,0.0741,0.0756,0.0764,0.082,0.0921,0.1025,0.1056,0.0963,0.0957,0.1197,0.1113,0.1602,0.149,0.148,0.1407,0.1389,0.1356,0,0]},{"header":{"parameterUnit":"m.s-1","parameterCategory":2,"la1":30.2992,"la2":30.254,"lo1":-89.0895,"lo2":-89.0443,"dy":0.0025,"dx":0.0025,"nx":19,"ny":19,"refTime":"2026-05-24T09:00:00:Z","depth":"2","parameterNumber":3,"parameterNumberName":"V-component_of_CURRENTS"},"data":[0,0,0,0.048,0.0478,0.039,0.0389,0.0288,0.0287,0,0,0,0,0,0,0,0,0,0,0,0.0508,0.0507,0.048,0.0478,0.039,0.0389,0.0288,0.0287,0,0,0,0,0,0,0,0,0,0,0,0.0508,0.0507,0.0507,0.0478,0.039,0.0389,0.0288,0.035,0,0,0,0,0,0,0,0,0,0,0.0434,0.0462,0.0507,0.0507,0.0477,0.039,0.0389,0.0353,0.0346,0.0333,0,0.0319,0,0.0305,0.0281,0.0281,0,0,0,0.0471,0.0468,0.0444,0.0506,0.0477,0.039,0.0428,0.0349,0.0342,0.0324,0.0318,0.0314,0.0303,0.028,0.028,0.0214,0.0214,0,0,0.0476,0.0491,0.0449,0.0439,0.0453,0.0431,0.0425,0.0344,0.0337,0.0317,0.0311,0.0301,0.028,0.0279,0.0214,0.0214,0,0,0,0.0495,0.0494,0.0472,0.0443,0.0428,0.0428,0.0422,0.034,0.0333,0.031,0.03,0.0279,0.0278,0.0214,0.0214,0.0262,0,0,0,0.0497,0.0506,0.0474,0.0482,0.043,0.0382,0.042,0.0338,0.0329,0.03,0.0279,0.0277,0.0214,0.0214,0.0261,0.0313,0,0,0,0.0512,0.0507,0.0497,0.0483,0.0447,0.0383,0.037,0.0335,0.0323,0.0281,0.0277,0.0214,0.0214,0.026,0.031,0.0311,0,0,0,0.053,0.0527,0.0497,0.049,0.0448,0.0418,0.0371,0.0335,0.0303,0.0279,0.0214,0.0214,0.026,0.0308,0.031,0.0372,0.0385,0,0,0.0541,0.0528,0.0526,0.0498,0.0488,0.043,0.0412,0.0346,0.0295,0.0241,0.0239,0.0262,0.0309,0.0311,0.0364,0.0377,0,0,0,0.054,0.0539,0.053,0.0514,0.0482,0.0458,0.0388,0.0351,0.0287,0.0275,0.0245,0.0274,0.0273,0.0307,0.0317,0.0214,0.0214,0.0214,0.0214,0.0567,0.0557,0.0563,0.0544,0.0525,0.047,0.0441,0.0376,0.0315,0.0287,0.03,0.0321,0.0356,0.0365,0.0267,0.0267,0.0268,0.0268,0.0268,0.0598,0.0606,0.0598,0.0599,0.0574,0.0553,0.0485,0.0435,0.0375,0.0326,0.0321,0.0341,0.0379,0.0271,0.0271,0.027,0.027,0.027,0.0269,0.0619,0.0627,0.0624,0.0638,0.0644,0.0606,0.0617,0.0539,0.0438,0.0432,0.0431,0.043,0.0364,0.0408,0.0408,0.0408,0.0408,0.0409,0.0409,0.0642,0.0647,0.0671,0.0683,0.0705,0.0726,0.0683,0.066,0.0583,0.0508,0.0507,0.0368,0.0364,0.0371,0.0412,0.0412,0.0411,0.0411,0.0411,0.0673,0.0673,0.0714,0.0741,0.0812,0.0901,0.0852,0.0819,0.0745,0.0722,0.0537,0.0533,0.0525,0.0517,0.0527,0.0606,0.0606,0.0606,0.0606,0.0694,0.0699,0.0759,0.083,0.0924,0.0987,0.1064,0.0947,0.0768,0.059,0.0589,0.0563,0.0557,0.0547,0.0538,0.0547,0.0631,0.0631,0.0631,0.0721,0.0735,0.0787,0.0856,0.0982,0.1102,0.1186,0.0969,0.0559,0.0624,0.0514,0.0623,0.0584,0.0574,0.0557,0.0544,0.0557,0,0]}],[{"header":{"parameterUnit":"m.s-1","parameterCategory":2,"la1":30.2992,"la2":30.254,"lo1":-89.0895,"lo2":-89.0443,"dy":0.0025,"dx":0.0025,"nx":19,"ny":19,"refTime":"2026-05-24T09:00:00:Z","depth":"4","parameterNumber":2,"parameterNumberName":"U-component_of_CURRENTS"},"data":[0,0,0,0.0067,0.0067,0.0084,0.0084,0.0078,0.0078,0,0,0,0,0,0,0,0,0,0,0,0.0067,0.0067,0.0067,0.0067,0.0084,0.0084,0.0078,0.0078,0,0,0,0,0,0,0,0,0,0,0,0.0067,0.0067,0.0068,0.0068,0.0084,0.0084,0.0078,0.0073,0,0,0,0,0,0,0,0,0,0,0.0061,0.0069,0.0067,0.0068,0.0068,0.0084,0.0084,0.0074,0.0074,0.0062,0,0.0068,0,0.0068,0.0077,0.0077,0,0,0,0.0071,0.0069,0.0066,0.0068,0.0068,0.0084,0.0077,0.0074,0.0074,0.0062,0.0068,0.0068,0.0068,0.0077,0.0077,0.0028,0.0027,0,0,0.007,0.0076,0.0066,0.0067,0.0075,0.0077,0.0078,0.0074,0.0079,0.0068,0.0068,0.0068,0.0077,0.0076,0.0028,0.0028,0,0,0,0.0065,0.0075,0.0073,0.0067,0.0069,0.0077,0.0078,0.008,0.0077,0.0068,0.0068,0.0076,0.0076,0.0029,0.0028,0.0049,0,0,0,0.0065,0.0072,0.0073,0.0077,0.007,0.0079,0.0084,0.0078,0.0077,0.0068,0.0076,0.0076,0.0029,0.0028,0.0049,0.0074,0,0,0,0.0066,0.0072,0.0073,0.0077,0.0081,0.0079,0.0078,0.0078,0.0077,0.0077,0.0076,0.0029,0.0028,0.005,0.0074,0.0102,0,0,0,0.0071,0.0072,0.0074,0.0073,0.0081,0.0071,0.0078,0.0074,0.0073,0.0076,0.0029,0.0028,0.005,0.0074,0.0101,0.0129,0,0,0,0.0072,0.0073,0.0069,0.007,0.0065,0.0069,0.0061,0.0064,0.0052,0.003,0.0029,0.0049,0.0074,0.0102,0.0072,0,0,0,0,0.0068,0.0071,0.0068,0.0067,0.0058,0.0061,0.0058,0.0049,0.0036,0.0047,0.0024,0.0039,0.0057,0.0068,0.0023,0.0024,0.0024,0.0024,0.0024,0.0085,0.0074,0.0073,0.0064,0.0058,0.0051,0.0048,0.0032,0.0025,0.0013,0.0037,0.0048,0.0057,0.0006,0.0006,0.0006,0.0006,0.0006,0.0006,0.0091,0.0086,0.0082,0.0079,0.0072,0.0067,0.0045,0.0041,0.0043,0.0024,0.004,0.0064,0.0008,0.0008,0.0007,0.0007,0.0007,0.0007,0.0007,0.01,0.0094,0.01,0.0101,0.0102,0.0093,0.0105,0.0088,0.0071,0.0081,0.0111,0.0069,0.0092,0.01,0.01,0.0101,0.0101,0.0101,0.0101,0.0103,0.0105,0.012,0.0124,0.0133,0.0148,0.0152,0.0155,0.014,0.0146,0.0105,0.008,0.0077,0.0096,0.0104,0.0104,0.0103,0.0103,0.0103,0.0093,0.0107,0.0132,0.0147,0.0173,0.0182,0.0197,0.0217,0.0232,0.023,0.0175,0.0171,0.0175,0.017,0.0193,0.023,0.023,0.0231,0,0.0089,0.0096,0.0142,0.0171,0.0198,0.0197,0.0241,0.0251,0.0231,0.0232,0.0202,0.0138,0.0135,0.0135,0.0131,0.0156,0,0,0,0.0079,0.0101,0.0137,0.0176,0.0202,0.0225,0.0252,0.0263,0.0243,0.0261,0.0242,0.0239,0.0144,0.0114,0.011,0.0106,0.0138,0,0]},{"header":{"parameterUnit":"m.s-1","parameterCategory":2,"la1":30.2992,"la2":30.254,"lo1":-89.0895,"lo2":-89.0443,"dy":0.0025,"dx":0.0025,"nx":19,"ny":19,"refTime":"2026-05-24T09:00:00:Z","depth":"4","parameterNumber":3,"parameterNumberName":"V-component_of_CURRENTS"},"data":[0,0,0,0.0018,0.0017,-0.0044,-0.0044,-0.0127,-0.0128,0,0,0,0,0,0,0,0,0,0,0,0.0045,0.0045,0.0018,0.0017,-0.0044,-0.0044,-0.0127,-0.0128,0,0,0,0,0,0,0,0,0,0,0,0.0045,0.0045,0.0045,0.0017,-0.0044,-0.0044,-0.0127,-0.0081,0,0,0,0,0,0,0,0,0,0,-0.0021,0.0007,0.0045,0.0045,0.0016,-0.0043,-0.0044,-0.0078,-0.0083,-0.0101,0,-0.0104,0,-0.012,-0.0134,-0.0134,0,0,0,0.0014,0.0011,-0.0007,0.0045,0.0016,-0.0043,-0.0017,-0.0081,-0.0087,-0.0107,-0.0106,-0.0109,-0.0122,-0.0134,-0.0134,-0.0211,-0.0211,0,0,0.0017,0.0033,-0.0003,-0.001,0.0007,-0.0015,-0.0019,-0.0085,-0.0087,-0.0106,-0.0111,-0.0123,-0.0135,-0.0135,-0.0211,-0.0211,0,0,0,0.0029,0.0036,0.0019,-0.0007,-0.0018,-0.0017,-0.0021,-0.0084,-0.009,-0.0112,-0.0124,-0.0135,-0.0136,-0.0211,-0.0211,-0.0209,0,0,0,0.0031,0.0042,0.0021,0.0029,-0.0017,-0.0051,-0.0019,-0.0085,-0.0093,-0.0124,-0.0135,-0.0137,-0.0211,-0.0211,-0.0208,-0.0196,0,0,0,0.0047,0.0044,0.0039,0.003,0.0004,-0.0051,-0.006,-0.0087,-0.01,-0.0134,-0.0137,-0.021,-0.0211,-0.0208,-0.0196,-0.0193,0,0,0,0.0062,0.0048,0.0039,0.0019,0.0005,-0.0041,-0.006,-0.0102,-0.0131,-0.0135,-0.0211,-0.0211,-0.0208,-0.0196,-0.0192,-0.0155,0,0,0,0.005,0.0047,0.0033,0.0024,-0.0012,-0.0034,-0.0077,-0.0123,-0.0145,-0.0189,-0.0191,-0.0208,-0.0196,-0.0193,-0.0188,0,0,0,0,0.0032,0.0026,0.0013,-0.0008,-0.0041,-0.0072,-0.0113,-0.0136,-0.0184,-0.0164,-0.022,-0.0213,-0.021,-0.0189,-0.0214,-0.0214,-0.0214,-0.0214,-0.0214,0.0039,0.002,-0.0003,-0.003,-0.0056,-0.0105,-0.0136,-0.0175,-0.0193,-0.0215,-0.022,-0.0227,-0.0207,-0.0237,-0.0237,-0.0237,-0.0237,-0.0237,-0.0237,0.0024,0.0008,-0.001,-0.0037,-0.0067,-0.0101,-0.0161,-0.0182,-0.0221,-0.0232,-0.023,-0.02,-0.0237,-0.0237,-0.0237,-0.0237,-0.0237,-0.0237,-0.0237,0.0028,0.0015,0.0006,-0.0025,-0.0057,-0.0098,-0.0133,-0.0175,-0.0211,-0.0221,-0.0194,-0.0223,-0.0212,-0.0218,-0.0218,-0.0218,-0.0218,-0.0218,-0.0218,0.0033,0.002,0.0012,-0.0018,-0.0032,-0.0063,-0.0115,-0.0141,-0.018,-0.0182,-0.0213,-0.022,-0.0221,-0.0211,-0.0217,-0.0217,-0.0217,-0.0217,-0.0217,0.0017,0.0024,0.0021,0.0012,-0.0028,-0.0052,-0.0085,-0.0112,-0.0131,-0.0145,-0.0165,-0.0168,-0.0161,-0.0163,-0.015,-0.0139,-0.0138,-0.0138,0,0.0015,0.0013,0.0026,0.0014,-0.0016,-0.0055,-0.0064,-0.0089,-0.0122,-0.0112,-0.0155,-0.0178,-0.018,-0.0174,-0.0174,-0.016,0,0,0,0.0001,0.0017,0.0029,0.0023,-0.0016,-0.0058,-0.007,-0.0069,-0.0104,-0.0112,-0.0126,-0.0129,-0.0193,-0.0214,-0.0211,-0.0212,-0.0195,0,0]}]]